Cedar City, UT

7:31 PM MDT on September 27, 2016 (GMT -0600)
Cedar City Regional

Weather History for KCDC - February, 2014

Change the Weather History Date:

Wednesday, February 26, 2014

  Actual Average Record
Temperature  
Mean Temperature 43 °F 36 °F  
Max Temperature 63 °F 49 °F 67 °F (1986)
Min Temperature 22 °F 23 °F -14 °F (1971)
Degree Days  
Heating Degree Days 22 29  
Month to date heating degree days 708 828  
Since 1 July heating degree days 4539 4503  
Cooling Degree Days 0 0  
Month to date cooling degree days 0 0  
Year to date cooling degree days 0 0  
Moisture  
Dew Point 18 °F    
Average Humidity 43    
Maximum Humidity 71    
Minimum Humidity 15    
Precipitation  
Precipitation 0.00 in 0.05 in 0.52 in (2011)
Month to date precipitation 0.06 0.92  
Year to date precipitation 0.50 1.78  
Sea Level Pressure  
Sea Level Pressure 29.93 in    
Wind  
Wind Speed 4 mph (SSW)    
Max Wind Speed 20 mph    
Max Gust Speed 27 mph    
Visibility 10 miles    
Events      
T = Trace of Precipitation, MM = Missing Value Source: NWS Daily Summary

Daily Weather History Graph

Daily Weather History Graph

Search for Another Location

Airport or City:

Trip Planner

Search our weather history database for the weather conditions in past years. The results will help you decide how hot, cold, wet, or windy it might be!

Date:

Astronomy

Feb. 26, 2014 Rise Set
Actual Time 7:07 AM MST 6:23 PM MST
Civil Twilight 6:41 AM MST 6:49 PM MST
Nautical Twilight 6:11 AM MST 7:19 PM MST
Astronomical Twilight 5:40 AM MST 7:50 PM MST
Moon 4:54 AM MST (2/26) 3:44 PM MST (2/26)
Length of Visible Light 12h 08m
Length of Day
11h 15m
Waning Crescent, 9% of the Moon is Illuminated
Feb 26
Waning Crescent
Mar 1
New
Mar 8
First Quarter
Mar 16
Full
Mar 23
Last Quarter

Hourly Weather History & Observations

Time (MST) Temp. Windchill Dew Point Humidity Pressure Visibility Wind Dir Wind Speed Gust Speed Precip Events Conditions
12:53 AM 30.9 °F 25.2 °F 15.1 °F 52% 29.97 in 10.0 mi NE 5.8 mph - N/A   Clear
1:53 AM 33.1 °F - 16.0 °F 50% 29.97 in 10.0 mi Calm Calm - N/A   Clear
2:53 AM 34.0 °F - 16.0 °F 48% 29.95 in 10.0 mi Calm Calm - N/A   Clear
3:53 AM 27.0 °F 23.0 °F 15.1 °F 61% 29.97 in 10.0 mi North 3.5 mph - N/A   Clear
4:53 AM 28.9 °F - 15.1 °F 56% 29.97 in 10.0 mi Calm Calm - N/A   Clear
5:53 AM 23.0 °F - 14.0 °F 68% 30.01 in 10.0 mi Calm Calm - N/A   Clear
6:53 AM 24.1 °F - 14.0 °F 65% 30.04 in 10.0 mi Calm Calm - N/A   Clear
7:53 AM 30.0 °F - 17.1 °F 59% 30.04 in 10.0 mi Calm Calm - N/A   Clear
8:53 AM 39.0 °F - 18.0 °F 43% 30.02 in 10.0 mi Calm Calm - N/A   Clear
9:53 AM 48.0 °F - 18.0 °F 30% 30.01 in 10.0 mi Calm Calm - N/A   Clear
10:53 AM 54.0 °F - 16.0 °F 22% 29.97 in 10.0 mi SSW 3.5 mph - N/A   Clear
11:53 AM 57.9 °F - 16.0 °F 19% 29.94 in 10.0 mi NNW 4.6 mph - N/A   Clear
12:53 PM 61.0 °F - 12.9 °F 15% 29.92 in 10.0 mi SW 5.8 mph - N/A   Clear
1:53 PM 63.0 °F - 15.1 °F 16% 29.87 in 10.0 mi SSW 12.7 mph 20.7 mph N/A   Clear
2:53 PM 61.0 °F - 17.1 °F 18% 29.85 in 10.0 mi SW 17.3 mph 25.3 mph N/A   Clear
3:53 PM 61.0 °F - 18.0 °F 19% 29.87 in 10.0 mi SSW 13.8 mph 25.3 mph N/A   Clear
4:53 PM 57.9 °F - 17.1 °F 20% 29.86 in 10.0 mi SW 15.0 mph 24.2 mph N/A   Clear
5:53 PM 55.0 °F - 19.0 °F 24% 29.89 in 10.0 mi SSW 15.0 mph - N/A   Partly Cloudy
6:53 PM 53.1 °F - 19.0 °F 26% 29.90 in 10.0 mi South 10.4 mph - N/A   Partly Cloudy
7:53 PM 51.1 °F - 19.9 °F 29% 29.90 in 10.0 mi South 4.6 mph - N/A   Mostly Cloudy
8:53 PM 48.0 °F - 21.0 °F 34% 29.88 in 10.0 mi SSW 4.6 mph - N/A   Overcast
9:53 PM 50.0 °F - 25.0 °F 38% 29.86 in 10.0 mi South 9.2 mph - N/A   Mostly Cloudy
10:53 PM 48.9 °F - 28.0 °F 44% 29.83 in 10.0 mi SSW 12.7 mph 18.4 mph N/A   Partly Cloudy
11:53 PM 46.9 °F - 32.0 °F 56% 29.81 in 10.0 mi South 15.0 mph - N/A   Mostly Cloudy